Notices

What's New in latest Release from April 7th, 2021:

- Updated Glossary, including Speed of Maximum Gust, and Total Hourly Precipitation

- Updated national and regional climate services offices contacts and prices information

- Addition of station inventory lists for 1981-2010, 1971-2000, and 1961-1990 Normals.

If you haven't already, please take our survey and provide feedback about our website: https://eccc.sondage-survey.ca/f/LanguageSelection.aspx?s=442ca660-fcf1-47c0-95a9-59707d6fd709

Hourly Data Report for March 08, 2021

OTTAWA INTL A
ONTARIO
Current Station Operator: NAVCAN

45°19'00.000" N
75°40'00.000" W
114.90 m
6106001
71628
YOW

Download Data

Hourly Data (March 2021)
Hourly Data Report for March 8, 2021
TIME
LST
Temp Definition
°C
Dew Point Definition
°C
Rel Hum Definition
%
Precip. Amount Definition
mm

Wind Dir Definition
10's deg

Wind Spd Definition
km/h
Visibility Definition
km
Stn Press Definition
kPa
Hmdx Definition


Wind Chill Definition


Weather Definition


00:00 -12.8 -19.6 57   23 8 24.1 101.56   -18 LegendNANA
01:00 -14.0 -19.7 62   24 9 24.1 101.59   -20 Clear
02:00 -13.7 -19.8 60   24 8 24.1 101.59   -19 LegendNANA
03:00 -15.1 -20.4 65   26 8 24.1 101.57   -20 LegendNANA
04:00 -16.0 -20.4 69   28 5 24.1 101.59   -20 Clear
05:00 -16.0 -20.8 67   28 10 24.1 101.64   -22 LegendNANA
06:00 -17.1 -20.9 73   30 5 24.1 101.66   -21 LegendNANA
07:00 -18.5 -21.8 76   26 5 24.1 101.67   -23 Mainly Clear
08:00 -17.5 -21.9 69   30 4 24.1 101.66   -21 LegendNANA
09:00 -13.7 -18.8 66   36 2 24.1 101.65   -15 LegendNANA
10:00 -9.6 -17.7 52   36 1 24.1 101.63   -10 Mainly Clear
11:00 -6.1 -18.3 38   22 12 24.1 101.62   -11 LegendNANA
12:00 -4.3 -17.5 35   17 11 24.1 101.51   -9 LegendNANA
13:00 -3.6 -15.9 38   15 12 24.1 101.41   -8 Mostly Cloudy
14:00 -3.3 -15.4 39   14 16 24.1 101.29   -9 LegendNANA
15:00 -3.5 -12.4 50   11 10 24.1 101.25   -7 LegendNANA
16:00 -2.3 -14.5 39   16 14 24.1 101.12   -7 Cloudy
17:00 -2.2 -13.1 43   18 16 24.1 101.09   -7 LegendNANA
18:00 -2.5 -9.5 59   17 13 24.1 101.03   -7 LegendNANA
19:00 -2.4 -8.8 62   17 8 24.1 101.03   -6 Mostly Cloudy
20:00 -2.4 -8.4 64   15 6 24.1 100.96   -5 LegendNANA
21:00 -2.8 -7.4 71   12 7 24.1 100.88   -6 LegendNANA
22:00 -3.1 -7.5 72   11 10 24.1 100.80   -7 Mostly Cloudy
23:00 -3.3 -7.0 75   6 7 24.1 100.78   -6 LegendNANA

Notes on Data Quality.

Legend

  • E = Estimated
  • M = Missing
  • NA = Not Available*
  • [empty] = Indicates an unobserved value
Date modified: